View from above orbital plane
|
View from above satellite
|
Ground track
|
The orbit data is extracted from the following two-line orbital elements,
1 28894U 05043E 21023.61351258 .00000032 00000-0 15746-4 0 9994
2 28894 98.0586 154.2384 0016545 341.9567 18.1045 14.61673095812150
Epoch (UTC): | 23 January 2021 14:43:27 |
Eccentricity: | 0.0016545 |
inclination: | 98.0586° |
perigee height: | 676 km |
apogee height: | 699 km |
right ascension of ascending node: | 154.2384° |
argument of perigee: | 341.9567° |
revolutions per day: | 14.61673095 |
mean anomaly at epoch: | 18.1045° |
orbit number at epoch: | 81215 |
The dashed part of the orbit path shows where the satellite is in the earth's shadow,
|
|